Home > Weather > Owen Sound > Past weeks

Flag for Canada Past Weather in Owen Sound, Ontario, Canada — Yesterday and Last 2 Weeks

Now
68 °F

Sunny.


Feels Like: 68 °F
Forecast: 51 / 72 °F
Wind: 8 mph from West

Location: Wiarton

Current Time: Jun 29, 2016 at 7:46:48 PM

Latest Report: Jun 29, 2016 at 7:00 PM


Visibility: 15 mi

Pressure: 30.03 "Hg

Humidity: 35%

Dew Point: 39 °F

Location of Owen SoundLocation

Past Weather in Owen Sound — Graph

°F

Owen Sound Temperature Yesterday

Maximum temperature yesterday: 63 °F (at 5:00 PM)
Minimum temperature yesterday: 55 °F (at 10:00 AM)
Average temperature yesterday: 59 °F

High & Low Weather Summary for the Past Weeks

 TemperatureHumidityPressure
High84 °F (Jun 19, 4:00 PM)100% (Jun 16, 1:00 AM)30.25 "Hg (Jun 16, 1:00 AM)
Low43 °F (Jun 23, 1:00 AM)24% (Jun 14, 7:00 PM)29.77 "Hg (Jun 16, 8:00 AM)
Average65 °F64%29.99 "Hg
* Reported Jun 14 6:00 PM — Jun 29 6:00 PM, Owen Sound, Weather by CustomWeather, © 2016

Note: Actual official high and low records may vary slightly from our data, if they occured in-between our weather recording intervals... More about our weather records

Advertising

Owen Sound Weather History for the Previous 24 Hours

Scroll right to see more
 ConditionsComfort  
Time TempWeatherWind HumidityBarometerVisibility
6:00 PM
Wed, Jun 29
70 °FSunny.9 mph35%30.03 "Hg15 mi
5:00 PM72 °FSunny.7 mph38%30.02 "Hg15 mi
4:00 PM72 °FPassing clouds.9 mph38%30.02 "Hg15 mi
3:00 PM72 °FPassing clouds.9 mph38%30.02 "Hg15 mi
2:00 PM72 °FScattered clouds.7 mph33%30.02 "Hg15 mi
1:00 PM72 °FScattered clouds.9 mph38%30.03 "Hg15 mi
12:00 PM70 °FPassing clouds.8 mph43%30.05 "Hg15 mi
11:00 AM70 °FPassing clouds.5 mph46%30.05 "Hg15 mi
10:00 AM68 °FPassing clouds.6 mph49%30.06 "Hg15 mi
9:00 AM64 °FSunny.3 mph60%30.06 "Hg15 mi
8:00 AM61 °FPassing clouds.2 mph63%30.07 "Hg15 mi
7:00 AM57 °FPassing clouds.2 mph67%30.04 "Hg15 mi
6:00 AM57 °FPassing clouds.3 mph59%30.01 "Hg15 mi
5:00 AM57 °FPassing clouds.2 mph63%30.02 "Hg15 mi
4:00 AM55 °FPassing clouds.No wind67%30.03 "Hg15 mi
3:00 AM57 °FPassing clouds.No wind63%30.02 "Hg15 mi
2:00 AM57 °FPassing clouds.5 mph63%30.03 "Hg15 mi
1:00 AM57 °FOvercast.5 mph67%30.03 "Hg15 mi
12:00 AM57 °FPassing clouds.3 mph63%30.04 "Hg15 mi
11:00 PM
Tue, Jun 28
57 °FPassing clouds.3 mph63%30.06 "Hg15 mi
10:00 PM59 °FPartly sunny.7 mph59%30.04 "Hg15 mi
9:00 PM61 °FPartly sunny.7 mph63%30.03 "Hg15 mi
8:00 PM63 °FPartly sunny.3 mph49%30.03 "Hg15 mi
7:00 PM61 °FPartly sunny.3 mph55%30.03 "Hg15 mi
Weather by CustomWeather, © 2016

See weather overviewHow to use our weather pages